Location: Antoign�
(47.0844°N, 0.1131°W)
Time: 08:41:21
(UTC+00:00)

SPOT 3 Rocket - Pass Details

Date: 03 March 2021
Orbit: 778 x 795 km, 98.7° (Epoch: 13 April)

Event Time Altitude Azimuth Distance (km) Brightness Sun altitude
Exits shadow 20:18:41 62° 40° (NE) 890 3.6 -25.9°
Drops below altitude 10° 20:23:24 10° 351° (N) 2,374 6.4 -26.7°
Sets 20:25:45 0° 348° (NNW) 3,309 7.2 -27.1°
